Temperature
18 18 18 18 18 18 18 18 18 18 18 17 17 17 17 17 17 17 17 17 17 17 17 17 17 17 17 18 18 18 18 18 18 18 18 18 18 18 18 18 18 18 18
18 18 18 18 18 18 18 18 17 17 17 17 17 17 17 17 17 17 17 17 17 17 17 17 17 17 17 18 18 18 18 18 18 18 17 18 18 18 18 18 18 18 18
18 18 18 18 18 18 17 17 17 17 17 17 17 17 17 17 17 17 17 17 17 17 17 17 17 17 17 17 17 17 17 17 17 17 17 17 18 18 18 18 18 18 18
18 18 18 18 17 17 17 17 17 17 17 17 17 17 17 17 17 17 17 17 17 17 17 17 17 17 17 17 17 17 17 17 17 17 17 17 17 18 18 18 18 18 18
17 17 18 18 17 17 17 17 17 17 17 17 17 17 17 17 17 17 17 17 17 17 17 17 17 17 17 17 17 17 17 17 17 17 17 17 17 17 18 18 18 18 18
17 17 18 17 17 17 17 17 17 17 17 17 17 17 16 17 17 17 17 17 17 17 17 17 17 17 17 17 17 17 17 17 17 17 17 17 17 17 17 18 18 18 18
17 17 18 17 17 17 17 17 17 17 17 17 17 17 17 17 17 17 17 17 17 17 17 17 17 17 17 17 17 17 17 17 17 17 17 17 17 17 17 17 17 17 17
18 18 18 17 17 17 17 17 17 17 17 17 17 17 17 17 17 17 17 17 17 17 17 17 17 17 17 17 17 17 17 17 17 17 17 17 17 17 17 17 17 17 17
18 18 17 17 17 17 17 17 17 17 17 17 17 17 17 17 17 17 17 17 16 17 17 17 17 17 17 17 17 17 17 17 17 16 16 17 16 16 17 17 17 17 17
18 18 18 17 17 17 17 17 17 17 17 17 17 17 17 16 16 16 17 17 17 16 17 17 17 17 17 17 17 17 16 17 16 16 16 16 16 16 16 17 17 17 17
18 18 18 17 17 17 17 17 17 17 17 17 17 17 17 16 16 16 17 17 17 16 16 16 16 17 17 16 16 16 16 16 16 16 16 16 16 16 16 16 16 16 17
18 18 18 18 18 17 17 17 17 17 17 17 17 17 17 17 17 17 17 16 16 16 16 16 16 16 16 16 16 16 16 16 16 16 16 16 16 16 16 16 16 16 16
18 18 18 18 18 18 17 17 17 17 17 17 17 17 17 17 17 17 16 16 16 16 16 16 16 16 16 16 16 16 16 16 16 16 16 16 16 16 16 16 16 16 16
19 18 18 18 18 18 18 18 17 17 17 17 17 17 17 17 17 17 16 16 16 16 16 16 16 16 16 16 16 16 16 16 16 16 15 15 16 16 16 16 16 16 16
18 18 18 18 19 18 18 18 17 17 17 17 17 17 17 17 17 17 17 16 16 16 16 16 16 16 16 16 16 16 15 15 15 15 15 15 15 15 15 16 16 16 16
19 19 18 19 19 19 18 18 17 17 17 17 17 17 17 17 17 17 16 16 16 16 16 16 16 16 16 16 16 15 15 15 15 15 15 15 15 15 15 15 15 15 15
19 19 19 18 18 18 18 18 17 17 17 17 17 17 17 17 17 16 16 16 16 16 16 16 16 16 16 15 15 15 15 15 15 15 15 15 15 15 15 15 15 15 15
19 19 19 18 18 18 18 18 17 17 17 17 17 17 17 17 16 16 16 16 16 16 16 16 16 16 16 15 15 15 15 15 15 15 15 15 15 15 15 15 15 15 15
19 19 19 18 18 18 18 17 17 17 17 17 16 17 17 16 16 16 16 16 16 16 16 16 16 16 15 15 15 15 15 15 15 14 14 14 14 14 14 14 14 14 14
19 19 18 18 18 18 17 17 17 17 17 16 16 16 16 16 16 16 16 16 16 16 16 16 15 15 15 15 15 15 15 15 15 14 14 14 14 14 14 14 14 14 14
19 19 18 18 18 17 17 17 17 17 16 16 16 16 16 16 16 16 16 16 16 16 15 15 15 15 15 15 15 15 15 14 14 14 14 14 14 14 14 14 14 14 14
19 19 18 18 18 17 17 17 17 16 16 16 16 16 16 16 16 16 15 15 15 15 15 15 15 15 15 15 15 15 15 14 14 14 14 14 14 14 13 13 13 13 14
19 18 18 18 18 17 17 17 17 16 16 16 16 16 16 16 16 16 15 15 15 15 15 15 15 15 15 15 15 15 15 15 14 14 14 14 14 13 13 13 13 13 13
19 18 18 18 18 17 17 17 17 16 16 16 16 16 16 16 16 15 15 15 15 15 15 15 15 15 15 15 15 15 15 15 15 14 14 13 13 13 13 13 13 13 13
18 18 18 18 18 17 17 17 17 16 16 16 16 16 15 15 15 15 15 15 15 15 15 15 15 15 15 15 15 15 15 15 15 15 14 13 13 13 13 13 13 13 12
18 18 18 18 18 17 17 17 17 17 16 16 16 16 16 16 15 15 15 15 15 15 15 15 15 15 15 15 15 15 15 15 15 15 14 14 13 13 13 13 12 12 12
Wind_Speed
6 9 10 10 11 10 10 10 11 11 11 12 12 12 12 12 12 12 12 12 12 12 12 12 11 11 12 12 12 12 11 10 9 8 10 11 12 12 12 11 11 11 12
9 11 12 12 11 11 11 11 11 11 11 12 12 12 12 12 13 12 12 12 12 12 12 12 12 12 12 12 11 11 10 8 7 6 7 11 12 12 13 13 12 10 12
10 11 12 12 11 12 12 12 12 12 12 12 12 12 12 12 12 12 11 11 11 11 12 12 11 12 11 11 10 10 9 9 9 7 7 9 12 13 12 12 12 12 12
11 12 12 12 12 12 12 13 13 12 12 12 12 12 12 12 12 11 11 11 10 10 11 11 11 11 11 10 10 9 9 9 11 11 10 11 11 12 12 12 12 12 12
11 13 12 12 12 12 12 12 12 13 13 13 12 11 11 11 11 11 10 10 9 9 10 10 10 10 10 10 9 9 9 9 11 12 13 14 12 12 12 11 11 12 11
12 13 12 13 13 13 13 12 13 12 12 12 11 11 10 10 10 10 9 9 8 9 9 9 9 9 9 9 8 8 9 10 9 11 13 13 11 12 12 11 12 12 11
11 13 13 13 13 13 13 13 12 12 12 11 11 10 9 9 9 9 9 9 8 9 9 9 9 9 8 8 8 8 9 9 7 10 13 12 11 12 12 12 12 12 12
11 13 13 12 13 12 13 12 12 11 11 11 10 9 9 9 9 8 8 8 8 9 9 8 8 8 7 6 6 7 9 10 9 11 13 12 12 12 12 11 11 11 12
9 11 11 12 11 12 12 12 11 10 10 9 8 8 7 8 8 8 8 8 8 8 8 7 7 7 6 5 4 6 8 9 9 10 12 11 11 12 12 11 11 11 11
8 8 8 10 11 12 11 11 10 9 8 7 7 6 6 6 7 8 8 8 7 7 7 6 6 5 4 3 2 4 5 6 10 13 11 11 12 12 11 11 11 11 10
7 6 6 7 8 10 11 11 10 8 7 7 6 5 5 5 7 8 9 7 7 6 5 4 4 4 2 1 1 3 5 7 12 12 11 12 12 12 12 12 11 11 10
6 5 5 5 6 7 7 9 7 7 7 5 5 6 4 4 7 8 8 7 6 5 4 3 3 3 3 1 1 4 6 11 12 12 13 14 13 13 13 13 12 12 11
6 5 6 5 5 5 4 5 3 4 3 2 4 6 6 6 6 7 6 5 5 6 4 3 3 2 3 4 6 8 11 12 12 12 13 15 14 14 13 13 13 12 12
7 5 4 4 4 5 5 4 3 3 2 3 4 6 6 3 2 3 3 3 2 3 3 2 2 4 6 9 10 11 12 11 11 11 13 15 15 14 14 14 13 13 12
7 5 3 2 4 5 5 2 4 3 3 5 5 5 7 3 2 3 4 4 4 4 3 3 5 7 7 9 11 11 9 11 12 12 12 14 15 15 14 14 14 14 13
7 7 4 4 2 4 5 3 4 4 5 6 5 4 6 5 4 3 4 3 3 4 5 5 7 6 6 7 8 9 9 10 11 11 12 13 15 15 14 14 14 14 13
7 7 5 4 3 5 6 5 4 4 6 5 4 6 7 7 6 4 3 2 3 6 7 7 8 6 6 6 6 7 9 9 10 10 11 11 12 14 15 14 14 14 14
6 6 6 3 5 6 5 4 4 5 5 5 6 6 7 8 8 5 3 3 4 6 5 4 4 5 5 5 5 6 6 7 9 10 11 11 11 12 14 16 16 16 16
6 6 6 4 5 6 5 4 4 5 5 6 6 7 8 8 8 6 3 3 6 5 4 4 5 4 5 5 5 5 5 5 6 9 10 11 12 13 13 15 16 17 17
5 6 5 5 5 6 4 4 3 4 4 5 5 6 7 8 8 6 4 5 6 4 4 4 5 5 4 3 5 6 5 4 5 6 7 9 11 12 12 12 13 15 17
5 6 6 6 5 4 3 3 3 3 2 3 4 6 7 8 7 6 4 4 4 4 4 4 4 4 3 3 4 4 4 4 5 4 5 6 8 10 12 12 11 11 13
6 6 7 6 5 5 4 4 3 3 3 3 3 5 6 6 7 5 4 3 4 4 4 4 4 2 1 1 2 2 2 2 3 4 4 5 5 8 9 11 12 13 13
6 5 5 6 6 6 5 3 4 3 2 3 3 2 4 6 6 5 4 4 3 4 3 2 3 3 1 1 1 2 2 2 1 2 4 5 5 4 5 9 12 13 14
6 6 6 5 6 7 6 4 5 4 3 2 3 3 3 4 4 4 4 4 3 3 3 2 3 2 2 1 2 3 3 3 2 2 2 3 5 5 5 7 10 12 14
7 6 6 5 6 6 6 5 4 4 3 3 3 4 3 2 3 4 3 3 4 3 3 4 4 4 2 2 2 2 3 3 2 3 2 2 3 4 4 6 8 10 12
7 6 5 4 5 5 6 7 6 5 4 4 4 4 3 2 2 3 3 3 4 3 4 3 3 3 3 3 3 3 2 2 2 2 2 2 3 2 4 5 6 8 9
Wind_Direction
81 79 82 79 74 70 73 75 74 73 74 74 74 74 77 78 77 77 75 73 71 69 69 69 66 61 61 62 61 59 55 54 57 65 73 70 65 64 63 65 70 72 72
93 84 79 79 76 73 76 78 79 79 79 79 79 77 77 79 78 79 78 75 72 70 68 66 63 61 60 61 60 56 51 42 39 52 74 75 69 65 63 64 70 74 74
96 88 80 77 77 75 76 78 80 80 82 83 82 80 79 80 80 80 78 74 70 69 70 68 63 62 60 60 57 52 44 30 21 29 60 83 76 67 66 68 71 75 74
94 86 80 80 81 79 79 80 80 78 78 81 81 80 80 81 79 78 81 76 73 71 72 72 65 63 62 59 54 45 32 21 20 44 66 68 69 68 67 68 70 74 74
91 87 83 83 83 83 82 83 83 81 80 80 80 81 82 83 82 79 81 79 76 73 74 75 71 66 63 57 50 37 24 17 26 56 64 68 67 69 69 68 70 74 75
96 94 90 89 87 85 84 84 84 83 83 84 84 83 82 83 82 79 78 79 77 79 78 77 74 68 65 57 44 31 18 19 43 65 70 68 66 71 71 70 71 73 76
103 103 100 96 94 90 88 87 86 86 84 83 83 84 84 83 83 82 79 78 79 81 81 80 77 71 67 57 40 30 20 14 59 74 74 68 66 72 73 71 71 73 75
110 112 110 107 102 97 93 92 92 92 90 86 84 84 87 87 85 84 81 81 83 83 83 83 81 76 69 57 42 30 22 25 53 75 77 67 67 72 72 71 71 72 71
113 122 130 128 117 108 102 101 100 100 100 97 96 97 98 96 90 87 86 85 87 88 88 88 88 83 73 61 40 23 26 25 39 59 70 64 67 71 72 71 71 70 69
111 118 130 130 131 127 120 117 116 116 117 120 119 122 124 120 111 98 96 101 99 99 98 99 100 98 89 71 26 13 29 32 60 63 61 64 68 71 71 72 72 71 70
106 113 117 122 129 129 130 131 138 140 144 149 156 155 153 159 136 112 101 111 112 115 117 121 125 124 115 88 50 30 34 71 75 70 57 64 70 70 70 70 70 70 69
118 118 116 116 124 124 118 133 147 142 157 173 154 158 166 110 104 108 118 134 139 142 150 165 170 165 185 196 115 59 63 76 75 71 63 67 69 69 69 68 68 68 68
118 107 111 118 116 120 114 116 113 112 136 112 99 109 97 94 115 123 142 157 172 174 175 170 198 149 121 82 75 75 69 73 72 69 66 67 67 68 67 66 65 66 67
108 108 122 135 128 112 102 99 94 80 74 67 61 88 77 65 80 96 107 100 123 115 102 99 99 87 75 74 69 70 72 75 79 79 70 68 66 66 66 65 64 64 64
128 130 124 111 111 117 105 103 96 76 55 64 34 66 87 66 61 76 85 64 61 80 84 63 66 64 58 60 63 67 71 76 81 79 73 70 67 65 65 65 64 62 62
139 136 129 108 90 102 106 89 81 81 72 67 34 29 79 69 68 67 78 75 63 73 79 81 83 77 68 66 61 61 62 70 80 87 83 73 69 65 65 65 64 61 61
138 132 122 109 99 84 84 81 84 82 81 71 41 27 61 68 67 64 71 74 71 70 73 77 80 82 84 76 66 66 60 58 69 78 89 83 75 67 65 64 64 61 60
127 123 121 121 104 91 83 78 83 79 74 70 50 31 47 66 71 58 52 66 77 74 75 82 81 79 77 73 69 64 62 54 58 69 75 80 78 74 68 66 62 60 58
128 131 133 117 104 97 99 92 77 85 75 69 56 36 38 56 66 66 49 51 68 70 72 78 81 86 88 86 89 80 66 54 51 65 69 72 75 76 73 67 64 61 58
145 145 141 121 120 118 114 102 78 68 70 71 64 50 42 48 59 64 62 50 58 66 64 71 76 76 86 91 92 90 86 77 58 56 64 69 70 73 73 70 68 63 57
165 155 143 139 132 120 111 104 99 92 83 76 68 60 53 51 51 62 62 53 60 65 69 83 84 83 88 91 87 83 72 77 78 70 60 71 69 69 69 69 69 69 63
162 157 147 142 136 125 109 115 117 105 101 96 73 64 65 59 52 61 70 70 78 73 61 67 79 75 80 103 118 125 103 50 43 74 72 70 69 69 67 67 68 71 70
166 158 151 146 141 130 131 123 117 106 99 101 99 80 64 69 63 55 61 75 84 93 87 78 83 83 55 356 45 93 118 124 107 53 71 74 66 63 60 66 65 69 73
169 156 162 163 150 142 144 142 145 137 135 135 126 126 109 93 83 64 69 77 81 81 83 66 69 65 61 15 8 30 70 110 122 116 50 71 77 68 58 61 61 65 73
165 163 172 166 150 150 152 147 150 144 148 138 127 129 126 109 104 89 73 80 86 86 85 71 62 50 50 51 40 31 41 45 61 109 114 91 70 69 71 66 67 64 69
156 158 165 155 150 154 160 160 161 150 147 140 140 142 137 120 104 101 90 78 83 83 81 79 78 67 53 49 44 54 66 63 54 76 105 116 105 84 79 73 75 71 69
Height
1524 1523 1523 1523 1523 1523 1523 1523 1524 1524 1524 1524 1525 1526 1526 1527 1527 1528 1529 1529 1530 1530 1531 1531 1531 1531 1531 1531 1531 1531 1532 1532 1532 1532 1532 1532 1532 1533 1533 1533 1533 1533 1533
1525 1524 1524 1524 1524 1524 1525 1525 1525 1525 1525 1526 1527 1527 1528 1529 1529 1530 1530 1531 1531 1532 1532 1532 1532 1533 1533 1533 1533 1533 1533 1533 1533 1532 1533 1533 1534 1534 1534 1534 1534 1535 1534
1525 1525 1525 1525 1525 1526 1526 1526 1527 1527 1527 1528 1528 1529 1529 1530 1531 1531 1531 1532 1533 1533 1534 1534 1534 1534 1534 1534 1534 1534 1534 1535 1534 1531 1532 1534 1535 1535 1535 1535 1536 1536 1536
1527 1526 1526 1526 1527 1527 1528 1528 1528 1528 1529 1529 1530 1530 1531 1531 1532 1532 1533 1533 1534 1535 1535 1535 1535 1535 1535 1535 1536 1536 1536 1536 1535 1532 1534 1536 1536 1537 1537 1537 1537 1537 1537
1528 1528 1528 1528 1528 1529 1529 1529 1530 1530 1530 1531 1531 1532 1532 1533 1533 1534 1534 1535 1535 1536 1536 1536 1536 1537 1537 1537 1537 1537 1538 1538 1537 1537 1537 1537 1538 1538 1538 1538 1538 1538 1538
1529 1529 1529 1530 1530 1530 1531 1531 1531 1532 1532 1533 1533 1533 1534 1534 1535 1535 1536 1536 1536 1537 1537 1537 1538 1538 1538 1538 1539 1539 1539 1539 1539 1539 1539 1539 1539 1539 1539 1539 1539 1539 1540
1531 1531 1531 1531 1532 1532 1532 1533 1533 1534 1534 1535 1535 1535 1536 1536 1536 1537 1537 1537 1538 1538 1538 1539 1539 1539 1539 1540 1540 1540 1541 1541 1541 1540 1540 1540 1540 1540 1540 1540 1541 1541 1541
1532 1532 1533 1533 1534 1534 1534 1534 1535 1536 1536 1536 1536 1537 1537 1537 1538 1538 1539 1539 1539 1539 1539 1540 1540 1540 1541 1541 1541 1542 1542 1542 1542 1542 1541 1541 1541 1541 1541 1541 1542 1542 1542
1534 1534 1534 1535 1535 1536 1536 1537 1537 1537 1538 1538 1538 1539 1539 1539 1539 1540 1540 1540 1540 1541 1541 1541 1541 1542 1542 1542 1543 1543 1543 1543 1543 1543 1543 1543 1543 1542 1542 1543 1543 1543 1543
1536 1537 1537 1537 1538 1538 1538 1539 1539 1539 1540 1540 1540 1541 1541 1541 1541 1541 1541 1541 1542 1542 1542 1542 1543 1543 1544 1544 1544 1544 1544 1544 1544 1544 1544 1544 1544 1544 1543 1544 1544 1544 1544
1538 1539 1539 1540 1540 1541 1541 1541 1541 1542 1542 1542 1542 1543 1543 1542 1543 1543 1543 1543 1543 1543 1544 1544 1544 1545 1545 1545 1546 1546 1545 1546 1545 1545 1545 1545 1545 1545 1544 1544 1545 1545 1545
1539 1540 1541 1542 1542 1543 1543 1543 1543 1544 1544 1544 1544 1545 1545 1545 1545 1545 1545 1545 1545 1545 1546 1546 1546 1546 1547 1547 1547 1547 1547 1547 1547 1546 1546 1546 1546 1546 1546 1545 1545 1546 1545
1540 1541 1542 1543 1544 1544 1545 1545 1546 1546 1546 1546 1546 1547 1547 1547 1547 1547 1546 1546 1547 1547 1548 1548 1548 1548 1548 1549 1549 1549 1549 1548 1548 1548 1548 1548 1547 1547 1547 1547 1546 1546 1546
1541 1543 1544 1544 1545 1545 1546 1547 1547 1547 1547 1548 1548 1548 1548 1548 1548 1548 1548 1548 1548 1549 1549 1550 1550 1550 1551 1551 1551 1550 1550 1550 1550 1549 1549 1549 1549 1548 1548 1548 1547 1547 1547
1542 1543 1545 1545 1546 1547 1547 1548 1548 1549 1549 1549 1549 1550 1550 1550 1550 1549 1550 1550 1550 1551 1551 1551 1551 1552 1552 1552 1552 1552 1552 1552 1551 1551 1551 1550 1550 1549 1549 1549 1549 1548 1548
1542 1543 1545 1546 1547 1548 1548 1548 1549 1549 1550 1550 1550 1551 1551 1551 1551 1551 1551 1551 1552 1552 1552 1552 1553 1553 1553 1553 1553 1553 1553 1553 1552 1552 1552 1552 1551 1551 1550 1550 1550 1550 1549
1542 1544 1545 1547 1548 1548 1548 1549 1550 1551 1551 1551 1551 1551 1552 1552 1551 1552 1552 1553 1553 1553 1554 1554 1554 1554 1555 1555 1555 1555 1555 1555 1554 1553 1553 1553 1553 1553 1552 1552 1551 1551 1550
1542 1544 1545 1547 1548 1549 1549 1550 1551 1551 1552 1552 1552 1552 1552 1552 1552 1552 1553 1554 1554 1555 1555 1555 1555 1556 1556 1556 1556 1557 1556 1556 1555 1555 1555 1555 1555 1554 1554 1553 1553 1552 1551
1542 1543 1545 1547 1548 1549 1550 1551 1551 1552 1552 1552 1552 1552 1552 1553 1553 1553 1554 1555 1555 1555 1556 1556 1557 1557 1557 1558 1558 1558 1558 1557 1557 1557 1557 1557 1557 1556 1555 1555 1554 1553 1552
1542 1543 1545 1547 1548 1549 1550 1551 1552 1552 1553 1553 1553 1553 1553 1553 1554 1554 1554 1555 1556 1556 1557 1557 1558 1558 1559 1559 1560 1560 1560 1560 1559 1559 1560 1559 1559 1558 1557 1556 1555 1554 1553
1541 1543 1545 1547 1548 1549 1550 1551 1552 1553 1553 1553 1554 1554 1554 1554 1554 1555 1555 1556 1556 1557 1557 1558 1559 1559 1560 1561 1561 1561 1562 1562 1562 1562 1562 1561 1561 1560 1559 1558 1557 1555 1554
1540 1543 1544 1546 1548 1549 1550 1551 1552 1553 1553 1554 1554 1554 1554 1554 1555 1555 1555 1556 1557 1557 1558 1559 1560 1560 1561 1561 1562 1562 1563 1564 1564 1564 1564 1563 1563 1562 1561 1559 1558 1557 1555
1539 1542 1543 1545 1547 1548 1549 1551 1552 1552 1553 1554 1554 1554 1555 1555 1555 1556 1556 1557 1557 1558 1559 1560 1561 1561 1561 1562 1562 1563 1563 1564 1564 1566 1565 1565 1564 1564 1563 1561 1560 1559 1557
1538 1540 1542 1544 1546 1547 1548 1550 1551 1552 1553 1554 1554 1555 1555 1556 1556 1557 1557 1557 1558 1559 1560 1560 1561 1561 1562 1562 1563 1563 1563 1564 1564 1566 1567 1566 1566 1565 1564 1563 1562 1561 1560
1536 1539 1541 1543 1544 1546 1547 1549 1550 1551 1552 1554 1554 1555 1555 1556 1557 1557 1558 1558 1559 1559 1560 1560 1561 1562 1562 1562 1563 1563 1564 1564 1565 1565 1567 1568 1567 1567 1566 1565 1564 1563 1562
1534 1537 1539 1541 1543 1544 1546 1548 1549 1550 1552 1553 1554 1555 1555 1556 1557 1557 1558 1559 1559 1560 1560 1561 1561 1562 1562 1562 1563 1564 1564 1564 1565 1566 1566 1567 1567 1568 1567 1566 1566 1564 1563